Weather History for Shelby, NC

Change the Weather History Date:

Monday, January 7, 2013

  Actual Average (KHKY) Record (KHKY)
Temperature  
Mean Temperature 39 °F -  
Max Temperature 51 °F 48 °F 69 °F (1982)
Min Temperature 27 °F 29 °F 5 °F (2014)
Degree Days  
Heating Degree Days 26    
Moisture  
Dew Point 26 °F    
Average Humidity 60    
Maximum Humidity 91    
Minimum Humidity 34    
Precipitation  
Precipitation 0.00 in - - ()
Sea Level Pressure  
Sea Level Pressure 30.34 in    
Wind  
Wind Speed 3 mph (NNE)    
Max Wind Speed 10 mph    
Max Gust Speed -    
Visibility 10 miles    
Events      
Averages and records for this station are not official NWS values.
T = Trace of Precipitation, MM = Missing Value Source: NWS Daily Summary

Daily Weather History Graph

Daily Weather History Graph

Search for Another Location

Airport:

Trip Planner

Search our weather history database for the weather conditions in past years. The results will help you decide how hot, cold, wet, or windy it might be!

Date:

Astronomy

Jan. 07, 2013 Rise Set
Actual Time 7:35 AM EST 5:30 PM EST
Civil Twilight 7:07 AM EST 5:58 PM EST
Nautical Twilight 6:36 AM EST 6:29 PM EST
Astronomical Twilight 6:05 AM EST 7:00 PM EST
Moon 3:00 AM EST (1/7) 1:38 PM EST (1/7)
Length of Visible Light 10h 50m
Length of Day
9h 54m
Waning Crescent, 23% of the Moon is Illuminated
Jan 7
Waning Crescent
Jan 11
New
Jan 18
First Quarter
Jan 26
Full
Feb 3
Last Quarter

Hourly Weather History & Observations

Time (EST) Temp. Windchill Dew Point Humidity Pressure Visibility Wind Dir Wind Speed Gust Speed Precip Events Conditions
12:35 AM 37.4 °F 32.8 °F 26.2 °F 64% 30.21 in 10.0 mi NNW 5.8 mph - N/A   Clear
12:55 AM 41.0 °F - 25.9 °F 55% 30.21 in 10.0 mi Calm Calm - N/A   Clear
1:35 AM 34.7 °F 31.8 °F 27.0 °F 73% 30.21 in 10.0 mi NNW 3.5 mph - N/A   Clear
1:55 AM 36.5 °F 29.2 °F 27.3 °F 69% 30.21 in 10.0 mi NW 10.4 mph - N/A   Clear
2:15 AM 34.9 °F - 27.3 °F 74% 30.21 in 10.0 mi Calm Calm - N/A   Clear
2:35 AM 38.1 °F 34.6 °F 26.6 °F 63% 30.21 in 10.0 mi NNW 4.6 mph - N/A   Clear
2:55 AM 39.2 °F 33.6 °F 26.1 °F 59% 30.23 in 10.0 mi NNW 8.1 mph - N/A   Clear
3:15 AM 39.2 °F 35.0 °F 26.1 °F 59% 30.23 in 10.0 mi North 5.8 mph - N/A   Clear
3:35 AM 39.0 °F 34.0 °F 25.9 °F 59% 30.24 in 10.0 mi North 6.9 mph - N/A   Clear
3:55 AM 36.5 °F 33.9 °F 25.7 °F 65% 30.25 in 10.0 mi WNW 3.5 mph - N/A   Clear
4:15 AM 35.8 °F 33.0 °F 25.5 °F 66% 30.24 in 10.0 mi NNW 3.5 mph - N/A   Clear
4:35 AM 37.4 °F - 25.7 °F 63% 30.24 in 10.0 mi Calm Calm - N/A   Clear
4:55 AM 34.2 °F - 25.7 °F 71% 30.25 in 10.0 mi Calm Calm - N/A   Clear
5:15 AM 35.4 °F - 26.1 °F 69% 30.26 in 10.0 mi Calm Calm - N/A   Clear
5:55 AM 35.6 °F - 25.7 °F 67% 30.28 in 10.0 mi Calm Calm - N/A   Clear
6:15 AM 32.0 °F 28.7 °F 25.9 °F 78% 30.29 in 10.0 mi East 3.5 mph - N/A   Clear
6:35 AM 29.3 °F - 25.0 °F 84% 30.30 in 10.0 mi Calm Calm - N/A   Clear
6:55 AM 30.7 °F 26.0 °F 26.2 °F 83% 30.31 in 10.0 mi NNE 4.6 mph - N/A   Clear
7:15 AM 27.9 °F - 25.0 °F 89% 30.32 in 10.0 mi Calm Calm - N/A   Clear
7:35 AM 31.5 °F - 26.8 °F 83% 30.33 in 10.0 mi Calm Calm - N/A   Clear
7:55 AM 29.1 °F 24.1 °F 25.7 °F 87% 30.34 in 10.0 mi NE 4.6 mph - N/A   Clear
8:15 AM 27.7 °F 21.3 °F 25.3 °F 91% 30.36 in 10.0 mi NNE 5.8 mph - N/A   Clear
8:35 AM 30.7 °F 27.3 °F 27.1 °F 86% 30.37 in 10.0 mi NNE 3.5 mph - N/A   Clear
8:55 AM 32.9 °F 28.5 °F 27.9 °F 82% 30.38 in 10.0 mi NNE 4.6 mph - N/A   Clear
9:15 AM 35.1 °F 30.1 °F 28.2 °F 76% 30.38 in 10.0 mi NNE 5.8 mph - N/A   Clear
9:35 AM 37.4 °F 33.8 °F 28.4 °F 70% 30.39 in 10.0 mi NNE 4.6 mph - N/A   Clear
9:55 AM 39.7 °F 34.9 °F 28.4 °F 64% 30.40 in 10.0 mi North 6.9 mph - N/A   Clear
10:15 AM 41.9 °F 38.2 °F 27.0 °F 55% 30.41 in 10.0 mi North 5.8 mph - N/A   Clear
10:35 AM 43.2 °F 39.7 °F 27.3 °F 54% 30.41 in 10.0 mi NE 5.8 mph - N/A   Clear
10:55 AM 44.1 °F 41.5 °F 26.6 °F 50% 30.42 in 10.0 mi NE 4.6 mph - N/A   Clear
11:15 AM 45.3 °F 42.3 °F 26.1 °F 47% 30.41 in 10.0 mi East 5.8 mph - N/A   Clear
11:35 AM 46.2 °F 44.1 °F 25.9 °F 45% 30.41 in 10.0 mi ENE 4.6 mph - N/A   Clear
11:55 AM 46.4 °F 45.2 °F 25.2 °F 43% 30.40 in 10.0 mi East 3.5 mph - N/A   Clear
12:35 PM 47.8 °F - 25.5 °F 42% 30.38 in 10.0 mi East 8.1 mph - N/A   Clear
12:55 PM 48.9 °F - 23.9 °F 38% 30.37 in 10.0 mi North 4.6 mph - N/A   Clear
1:55 PM 49.8 °F - 24.8 °F 38% 30.35 in 10.0 mi NNW 3.5 mph - N/A   Clear
2:15 PM 50.5 °F - 24.6 °F 36% 30.35 in 10.0 mi NE 6.9 mph - N/A   Clear
2:55 PM 50.9 °F - 23.4 °F 34% 30.35 in 10.0 mi Calm Calm - N/A   Clear
3:15 PM 51.3 °F - 23.7 °F 34% 30.35 in 10.0 mi East 3.5 mph - N/A   Clear
3:35 PM 51.4 °F - 23.7 °F 34% 30.35 in 10.0 mi NE 6.9 mph - N/A   Clear
3:55 PM 51.3 °F - 23.9 °F 34% 30.36 in 10.0 mi East 3.5 mph - N/A   Clear
4:15 PM 50.5 °F - 23.7 °F 35% 30.36 in 10.0 mi Calm Calm - N/A   Clear
4:35 PM 50.2 °F - 23.9 °F 36% 30.37 in 10.0 mi Calm Calm - N/A   Clear
4:55 PM 49.6 °F - 24.3 °F 37% 30.37 in 10.0 mi Calm Calm - N/A   Clear
5:15 PM 48.4 °F - 24.8 °F 40% 30.37 in 10.0 mi Calm Calm - N/A   Clear
5:35 PM 46.9 °F - 24.8 °F 42% 30.38 in 10.0 mi Calm Calm - N/A   Clear
5:55 PM 46.0 °F - 24.8 °F 43% 30.38 in 10.0 mi Calm Calm - N/A   Clear
6:15 PM 45.9 °F - 25.2 °F 44% 30.39 in 10.0 mi Calm Calm - N/A   Clear
6:35 PM 43.5 °F 41.9 °F 24.8 °F 48% 30.39 in 10.0 mi NE 3.5 mph - N/A   Clear
6:55 PM 43.9 °F 42.3 °F 25.2 °F 48% 30.39 in 10.0 mi NE 3.5 mph - N/A   Clear
7:15 PM 42.3 °F 39.4 °F 25.3 °F 51% 30.38 in 10.0 mi NE 4.6 mph - N/A   Clear
7:35 PM 41.9 °F 40.0 °F 25.7 °F 53% 30.38 in 10.0 mi NNE 3.5 mph - N/A   Clear
7:55 PM 39.6 °F - 25.7 °F 58% 30.38 in 10.0 mi Calm Calm - N/A   Clear
8:15 PM 39.6 °F 37.4 °F 25.7 °F 58% 30.39 in 10.0 mi NE 3.5 mph - N/A   Clear
8:35 PM 39.2 °F 37.0 °F 26.2 °F 60% 30.39 in 10.0 mi NE 3.5 mph - N/A   Clear
8:55 PM 37.6 °F - 26.4 °F 64% 30.39 in 10.0 mi Calm Calm - N/A   Clear
9:15 PM 36.1 °F 33.5 °F 26.4 °F 68% 30.39 in 10.0 mi NE 3.5 mph - N/A   Clear
9:35 PM 37.0 °F - 26.8 °F 66% 30.40 in 10.0 mi Calm Calm - N/A   Clear
9:55 PM 36.5 °F - 26.2 °F 66% 30.40 in 10.0 mi Calm Calm - N/A   Clear
10:15 PM 34.9 °F - 26.4 °F 71% 30.41 in 10.0 mi Calm Calm - N/A   Clear
10:35 PM 32.2 °F - 26.2 °F 79% 30.41 in 10.0 mi Calm Calm - N/A   Clear
10:55 PM 32.5 °F - 26.2 °F 78% 30.41 in 10.0 mi Calm Calm - N/A   Clear
11:15 PM 32.5 °F - 26.2 °F 78% 30.41 in 10.0 mi Calm Calm - N/A   Clear
11:35 PM 32.0 °F - 26.4 °F 80% 30.41 in 10.0 mi Calm Calm - N/A   Clear
11:55 PM 30.4 °F 26.9 °F 25.5 °F 82% 30.41 in 10.0 mi NNE 3.5 mph - N/A   Clear